Flag for Canada Weather past 2 weeks in Edmundston, New Brunswick, Canada

Now
57 °F

Cool.


Feels Like: 57 °F
Forecast: 56 / 72 °F
Wind: 5 mph from Southeast

Location: St Leonard

Current Time: Aug 1, 2015 at 8:56:08 AM

Latest Report: Aug 1, 2015 at 7:00 AM


Visibility: N/A

Pressure: 29.68 "Hg

Humidity: 93%

Dew point: 55 °F

Location of EdmundstonLocation

Historic Weather in Edmundston — Graph

°F

Edmundston temperature yesterday

Maximum temperature yesterday: 79 °F (at 2:00 PM)
Minimum temperature yesterday: 62 °F (at 11:00 PM)
Average temperature yesterday: 70 °F

Past Weeks' High & Low Weather Summary

 TemperatureHumidityPressure
High81 °F (Jul 30, 4:00 PM)100% (Jul 18, 7:00 PM)30.13 "Hg (Jul 18, 7:00 PM)
Low44 °F (Jul 17, 7:00 AM)33% (Jul 28, 4:00 PM)29.54 "Hg (Jul 22, 4:00 AM)
Average62 °F83%29.84 "Hg
* Reported Jul 17 7:00 AM — Aug 1 7:00 AM, Edmundston, Weather by CustomWeather, © 2015

Note: Actual official high and low records may vary slightly from our data, if they occured in-between our weather recording intervals... More about our weather records

Advertising

Edmundston weather history for previous 24 hours

 ConditionsComfort  
Time TempWeatherWind HumidityBarometerVisibility
7:00 AM
Sat, Aug 1
57 °FCool.5 mph93%29.68 "HgN/A
6:00 AM58 °FCool.6 mph92%29.66 "HgN/A
5:00 AM56 °FCool.2 mph94%29.67 "HgN/A
4:00 AM58 °FCool.3 mph91%29.67 "HgN/A
3:00 AM58 °FCool.3 mph89%29.67 "HgN/A
2:00 AM62 °FCool.6 mph87%29.69 "HgN/A
1:00 AM58 °FCool.2 mph90%29.69 "HgN/A
12:00 AM62 °FMild.3 mph87%29.68 "HgN/A
11:00 PM
Fri, Jul 31
62 °FCool.1 mph81%29.67 "HgN/A
10:00 PM65 °FMild.5 mph81%29.66 "HgN/A
9:00 PM68 °FMild.3 mph75%29.65 "HgN/A
8:00 PM72 °FMild.8 mph64%29.63 "HgN/A
7:00 PM74 °FMild.10 mph58%29.61 "HgN/A
6:00 PM74 °FMild.10 mph61%29.61 "HgN/A
5:00 PM74 °FMild.10 mph59%29.59 "HgN/A
4:00 PM78 °FWarm.15 mph53%29.59 "HgN/A
3:00 PM78 °FWarm.14 mph54%29.59 "HgN/A
2:00 PM79 °FWarm.12 mph53%29.58 "HgN/A
1:00 PM76 °FMild.6 mph63%29.59 "HgN/A
12:00 PM76 °FMild.7 mph67%29.61 "HgN/A
11:00 AM72 °FMild.6 mph79%29.62 "HgN/A
10:00 AM70 °FMild.7 mph84%29.62 "HgN/A
9:00 AM67 °FMild.7 mph90%29.62 "HgN/A
8:00 AM67 °FMild.7 mph94%29.62 "HgN/A
Weather by CustomWeather, © 2015

See weather overviewHow to use our weather pages